Content
SEND FEEDBACK

Daily
Averages
Monthly
Summary
United States of America

GRAND MARAIS, MINNESOTA


Home > North America > United States > Minnesota
Elevation: 1818 feet     Latitude: 48 05N     Longitude: 090 46W

WEATHER
 
SELECT A DAY
Number of Records: 136,995;   Date Range: 7/30/98 - 10/24/14
 
SHARE

PRINT THIS DATA

[ ← Previous Day ]
WEATHER ALMANAC - JUNE 18, 2014
[ Next Day → ]
[ °C ]   °F
Weather ElementAverageHighLow
Temperature54.1 °F61 °F (3:56 am)48 °F (10:56 pm)
Dewpoint46 °F53.1 °F (5:56 am)41 °F (6:56 pm)
Humidity74.3 %86 % (2:56 am)55 % (5:56 pm)
Barometer30.09 in30.16 in (10:56 pm)29.98 in (1:56 am)
Wind Speed8.8 mph16.1 mph (1:56 pm)
Wind Gust21.9 mph (6:56 am)
Weather ElementAverage
Wind DirectionENE (51.7 °)

Weather ElementTotal
Precipitation---
Heating Degree Days10.5 (Base 65)
Growing Degree Days4.5 (Base 50)
Averaged from 23 records on June 18, 2014
WEATHER CONDITIONS BREAKOUT
WIND DIRECTION BREAKOUT
WEATHER BY HOUR - JUNE 18, 2014
[ °C ]   °F
Local TimeTemperatureDewpointHumidityBarometerVisibilityWind DirectionWind SpeedGust SpeedPrecipitationEventsConditions
1:56 AM55.9 °F48.9 °F77 %29.98 inNE (40°)3.5 mph
2:56 AM48.9 °F45.0 °F86 %29.99 inVariable4.6 mph
3:56 AM61.0 °F52.0 °F72 %29.99 inNE (50°)8.1 mph
4:56 AM61.0 °F52.0 °F72 %30.00 inNE (50°)11.5 mph19.6 mph
5:56 AM61.0 °F53.1 °F75 %29.99 inNE (50°)11.5 mph17.3 mph
6:56 AM60.1 °F51.1 °F72 %30.04 inENE (60°)13.8 mph21.9 mph
7:56 AM52.0 °F46.9 °F83 %30.07 inENE (70°)9.2 mph
8:56 AM53.1 °F46.9 °F80 %30.09 inENE (60°)9.2 mph
9:56 AM53.1 °F46.9 °F80 %30.10 inENE (60°)10.4 mph
10:56 AM54.0 °F46.0 °F75 %30.09 inENE (60°)12.7 mph
11:56 AM54.0 °F45.0 °F72 %30.10 inENE (60°)12.7 mph
12:56 PM54.0 °F46.0 °F75 %30.11 inENE (70°)13.8 mph21.9 mph
1:56 PM54.0 °F44.1 °F69 %30.13 inENE (60°)16.1 mph
2:56 PM55.0 °F45.0 °F69 %30.14 inENE (70°)11.5 mph
3:56 PM53.1 °F43.0 °F69 %30.12 inENE (70°)12.7 mph
4:56 PM55.0 °F44.1 °F67 %30.11 inENE (70°)13.8 mph
5:56 PM60.1 °F44.1 °F55 %30.09 inENE (70°)10.4 mph19.6 mph
6:56 PM50.0 °F41.0 °F71 %30.13 inNE (50°)3.5 mph
7:56 PM51.1 °F41.0 °F68 %30.13 inENE (60°)4.6 mph
8:56 PM48.9 °F41.0 °F74 %30.14 inCalm
9:56 PM51.1 °F46.9 °F86 %30.15 inCalm
10:56 PM48.0 °F43.0 °F83 %30.16 inENE (60°)4.6 mph
11:56 PM50.0 °F44.1 °F80 %30.16 inNE (50°)3.5 mph
Hourly data recorded from KGNA, located miles away from Grand Marais, Minnesota







STORIES FROM OUR PARTNERS